MTG-S1

Last updated on Thu Oct 30 2025 00:02:53 GMT+0000 (Coordinated Universal Time)

1 64723U 25143A 25302.32773029 -.00000021 00000+0 00000+0 0 9994 2 64723 0.7985 312.6499 0001895 292.7130 267.1617 1.00273300 1102
UTC large
Height (km)
Speed (km/s)
/
Latitude / Longitude
Inclination (degrees)
Orbital Period (minutes)
Azimuth
Elevation
Range (km)
Doppler Factor

Next 0 passes for location: London (51.5072 / 0.1276)

Sorry there are no passes over London.